Zurück zum Katalog

COSMOS 2419

GLONASS

AktivNavigationMEO
NORAD 28915·PAYLOAD·🇷🇺 Russia

Gestartet Dec 25, 2005 von Baikonur Cosmodrome

Loading…

Nächste Überflüge (nächste 24 Stunden)

TLE

AktuellSource: Space-Track

Epoche: Sep 13, 2026, 09:35 UTC

1 28915U 05050A   26256.39947172 -.00000052  00000-0  00000-0 0  9996
2 28915  65.5145 313.1315 0013851 328.6134  29.5152  2.13108287161245

Verfolge COSMOS 2419 in Echtzeit mit AllMySat

Download on the App Store